Regional Weather Roundup
Issued by NWS

Home | Current Version | Previous Version | Text Only | Print | Product List | Glossary On
Versions: 1 2 3 4 5 6 7 8 9 10 11 12 13 14 15 16 17 18 19 20 21 22 23 24 25 26 27 28 29 30 31 32 33 34 35 36 37 38 39 40 41 42 43 44 45 46 47 48 49 50
000
ASUS43 KIND 160409
RWRIN

WEATHER ROUNDUP FOR INDIANA
NATIONAL WEATHER SERVICE INDIANAPOLIS IN
1200 AM EDT WED APR 16 2014

NOTE: "FAIR" INDICATES FEW OR NO CLOUDS BELOW 12,000 FEET WITH NO
SIGNIFICANT WEATHER AND/OR OBSTRUCTIONS TO VISIBILITY.

* - STATION DOES NOT REPORT WEATHER SUCH AS PRECIPITATION OR FOG.

+ - STATION NOT QUALITY CONTROLLED BY THE NATIONAL WEATHER SERVICE.
    USE DATA WITH CAUTION...ESPECIALLY DEWPOINT AND RELATIVE
    HUMIDITY OBSERVATIONS.

INZ001>003-010>013-019-020-160500-
NORTHWEST INDIANA

CITY           SKY/WX    TMP DP  RH WIND       PRES   REMARKS
GARY /AIRPORT/ CLEAR     33  22  65 SE3       30.22S
LA PORTE +     PTCLDY    27  17  65 CALM      30.23S
MICHIGAN CITY+ CLEAR     28  16  59 SE3       30.23S
MONTICELLO +   CLEAR     32  17  55 SE3       30.23S
RENSSELAER +   CLEAR     30  21  69 CALM      30.22F
VALPARAISO     CLEAR     25  16  68 SE3       30.22S

$$

LMZ046-743>745-160500-
SOUTHERN LAKE MICHIGAN

STATION/POSITION TIME  TEMP WIND        PRES
                       AIR  DIR/SP/G
                 (UTC) (F)  (DEG/KT/KT) (MB)
MICHIGAN CITY    0400   31  130/  5/  7   N/A

$$

INZ004-005-014>016-021>024-160500-
NORTH CENTRAL INDIANA

CITY           SKY/WX    TMP DP  RH WIND       PRES   REMARKS
GOSHEN         CLEAR     26  16  65 SE3       30.23S
LOGANSPORT +   CLEAR     27  21  80 E5        30.24S WCI  21
PERU/GRISSOM   CLEAR     29  19  67 SE3       30.23S
ROCHESTER +    CLEAR     30  19  64 E3        30.24S
SOUTH BEND     CLEAR     29  14  53 E5        30.23S WCI  24
WARSAW +       CLEAR     27  18  69 CALM      30.23F

$$

INZ006>009-017-018-025>027-160500-
NORTHEAST INDIANA

CITY           SKY/WX    TMP DP  RH WIND       PRES   REMARKS
ANGOLA *+      CLEAR     25  16  68 CALM      30.23S
AUBURN +       CLEAR     27  18  69 CALM      30.25S
FORT WAYNE     CLEAR     26  14  60 CALM      30.25S

$$

INZ028-029-035-036-043>045-051>053-160500-
WEST CENTRAL INDIANA

CITY           SKY/WX    TMP DP  RH WIND       PRES   REMARKS
GREENCASTLE +  CLEAR     28  21  74 CALM      30.24S
LAFAYETTE      CLEAR     28  20  71 E3        30.23F
TERRE HAUTE    CLEAR     30  25  81 E3        30.24S

$$

INZ030>032-037>040-046>048-054>057-064-065-160500-
CENTRAL INDIANA

CITY           SKY/WX    TMP DP  RH WIND       PRES   REMARKS
CP ATTERBURY + CLEAR     30  27  86 CALM      30.26S
INDIANAPOLIS   CLEAR     30  17  58 E5        30.23S WCI  25
-EAGLE CREEK   CLEAR     30  19  63 CALM      30.23S
KOKOMO *+      CLEAR     28  21  74 SE5       30.24S WCI  23
MARION +       CLEAR     27  19  70 SE5       30.25S WCI  22
MT COMFORT *+  CLEAR     28  25  86 CALM      30.25S
SHELBYVILLE    CLEAR     31  23  72 E5        30.24S WCI  26
ZIONSVILLE +   CLEAR     28  22  76 CALM      30.24S

$$

INZ033-034-041-042-049-050-058-059-160500-
EAST CENTRAL INDIANA

CITY           SKY/WX    TMP DP  RH WIND       PRES   REMARKS
MUNCIE         CLEAR     27  19  72 E3        30.24S

$$

INZ060-061-067>069-081>083-085>088-160500-
SOUTHWEST INDIANA

CITY           SKY/WX    TMP DP  RH WIND       PRES   REMARKS
EVANSVILLE     CLEAR     35  29  78 CALM      30.26S
HUNTINGBURG *+ CLEAR     34  21  60 E3        30.25S
WASHINGTON +   CLEAR     33  30  86 CALM      30.24F

$$

INZ062-063-066-070>080-084-089>092-160500-
SOUTH CENTRAL AND SOUTHEAST INDIANA

CITY           SKY/WX    TMP DP  RH WIND       PRES   REMARKS
BLOOMINGTON    CLEAR     29  21  72 CALM      30.23F

$$




USA.gov is the U.S. government's official web portal to all federal, state and local government web resources and services.